GFSNE_prec_sndepth_051.txt.gz
Snowfall_Accumulation
0.0 0.0 0.0 0.0 0.0 0.0 0.0 0.0 0.0 0.0 0.0 0.0 0.0 0.0 0.0 0.0 0.0 0.0 0.0 nan nan nan nan nan nan nan nan nan nan nan nan nan nan nan nan nan nan nan
0.0 0.0 0.0 0.0 0.0 0.0 0.0 0.0 0.0 0.0 0.0 0.0 0.0 0.0 0.0 0.0 0.0 0.0 0.0 nan nan nan nan nan nan nan nan nan nan nan nan nan nan nan nan nan nan nan
0.0 0.0 0.0 0.0 0.0 0.0 0.0 0.0 0.0 0.0 0.3 0.1 0.0 0.0 0.1 0.0 0.0 0.0 0.0 0.0 0.0 nan nan nan nan nan nan nan nan nan nan nan nan nan nan nan nan nan
0.0 0.1 0.0 0.0 0.1 0.1 0.1 0.1 0.1 0.3 0.6 0.4 0.5 1.0 0.6 0.3 0.1 0.0 0.0 0.0 0.0 nan nan nan nan nan nan nan nan nan nan nan nan nan nan nan nan nan
0.0 0.0 0.0 0.0 0.0 0.1 0.2 0.6 0.9 0.5 0.9 0.9 0.9 0.5 0.2 0.0 0.0 0.0 0.0 0.0 0.0 nan nan nan nan nan nan nan nan nan nan nan nan nan nan nan nan nan
0.0 0.0 0.0 0.0 0.1 0.5 0.7 0.8 0.6 0.6 0.4 0.3 0.2 0.5 0.4 0.0 0.0 0.0 0.0 0.0 0.0 0.0 nan nan nan nan nan nan nan nan nan nan nan nan nan nan nan nan
0.1 0.3 0.4 nan nan nan 0.3 0.3 0.2 0.3 0.4 1.7 0.9 0.5 0.4 0.1 0.0 0.0 0.0 0.0 0.1 0.0 0.0 0.0 0.0 0.0 0.0 nan nan nan nan nan nan nan nan nan nan nan
0.9 0.5 0.4 0.3 0.3 nan nan nan nan 0.1 0.4 1.3 1.5 0.2 0.0 0.0 0.0 0.0 0.6 0.6 1.9 0.0 0.0 0.0 0.0 0.0 0.0 0.0 nan nan nan nan nan nan nan nan nan nan
0.9 0.8 0.4 0.1 nan 0.2 nan nan nan nan nan 0.0 0.0 0.0 0.0 0.0 0.5 0.7 0.2 0.6 0.5 0.0 0.0 0.2 0.0 0.0 0.0 0.0 nan nan nan nan nan nan nan nan nan nan
0.3 0.2 0.0 0.0 0.0 0.0 0.0 0.2 0.1 0.0 0.0 0.0 0.0 0.0 0.0 0.0 0.1 0.8 0.9 0.3 0.0 0.0 0.0 2.8 0.0 0.0 0.0 0.0 nan nan nan nan nan nan nan nan nan nan
0.1 0.0 0.0 0.0 nan nan 0.0 0.5 0.0 0.0 nan nan nan nan nan nan nan 0.3 1.3 2.6 0.8 0.2 0.1 0.5 0.3 0.5 0.3 0.1 0.0 nan nan nan nan nan nan nan nan nan
0.0 0.0 nan 0.0 nan nan 0.0 0.0 0.1 0.0 0.0 0.1 0.0 0.0 nan nan nan 0.0 1.6 9.6 4.9 3.6 0.4 5.2 1.2 1.8 5.9 0.5 0.5 0.2 0.0 nan nan nan nan nan nan 0.0
0.1 0.0 0.0 nan nan nan nan 0.0 0.0 0.0 0.0 0.0 0.0 0.0 0.0 0.0 0.0 0.1 0.1 6.8 11.9 7.6 0.5 4.1 8.0 2.5 3.9 3.5 1.0 0.8 0.5 0.2 0.1 0.1 nan nan nan 0.1
0.0 0.0 0.0 nan nan nan nan nan nan nan 0.0 0.0 0.2 0.5 1.1 1.3 1.0 0.8 0.2 0.8 1.1 5.2 1.2 4.3 22.3 8.8 11.8 7.0 3.7 1.4 1.3 0.9 1.3 1.1 1.1 nan nan nan
0.0 0.0 nan nan nan nan nan nan nan 0.1 0.1 0.9 1.1 2.0 2.1 2.5 2.5 3.0 2.0 2.2 4.0 2.1 2.3 5.3 11.3 9.5 10.9 10.9 7.1 3.4 4.4 2.0 2.2 3.6 1.5 1.1 0.9 0.8
nan 0.9 nan 0.0 nan nan 0.0 0.0 0.1 0.0 0.4 1.3 1.6 1.1 1.6 4.8 4.7 3.9 8.3 6.8 8.9 5.9 2.8 4.8 6.9 8.6 12.7 5.4 6.1 4.9 2.9 9.4 2.7 2.1 2.0 1.1 0.5 0.4
nan 0.0 0.0 0.0 0.2 0.0 0.0 0.0 0.0 0.0 1.1 1.3 2.8 2.9 2.6 4.2 5.2 5.4 8.6 9.7 12.7 9.8 8.1 4.4 1.4 2.4 3.7 5.6 9.3 2.9 2.5 3.1 3.2 3.6 3.0 2.8 1.2 0.9
0.0 0.0 0.4 0.5 0.5 0.1 0.1 0.1 0.2 0.9 1.3 3.0 3.4 3.9 6.5 7.7 8.9 9.7 10.6 11.3 12.5 8.5 8.6 7.5 7.6 7.8 5.3 3.4 4.8 4.8 3.3 3.6 3.1 2.3 1.9 6.5 4.2 0.8
0.0 1.1 1.2 1.1 1.1 1.2 1.6 2.3 4.0 2.0 3.3 7.0 7.6 8.3 9.5 9.5 10.3 10.3 10.9 9.0 8.6 8.2 9.3 9.5 12.5 13.8 13.9 10.1 2.1 nan 10.1 5.4 3.9 2.7 1.5 2.9 5.5 2.2
1.4 1.8 2.0 1.6 1.5 2.2 2.8 4.7 5.4 4.8 6.4 8.0 9.6 11.1 12.0 13.7 13.1 12.2 10.0 11.7 8.9 9.1 10.5 11.6 14.4 18.8 22.9 19.6 13.3 5.5 nan 5.4 5.3 5.3 6.0 1.3 0.6 nan
1.4 1.7 1.2 1.8 2.3 3.2 4.0 5.8 5.9 9.9 13.2 14.6 11.8 12.8 12.4 14.6 11.9 9.7 7.9 5.2 nan 8.1 11.4 10.3 10.1 nan 13.1 9.5 9.4 3.0 2.4 nan 1.0 8.8 7.6 6.0 3.8 1.2
1.0 1.5 1.5 2.1 2.9 4.7 6.9 7.8 9.2 9.3 10.8 10.6 11.4 12.7 11.8 11.3 11.8 8.6 5.3 8.3 5.1 7.0 10.3 9.8 6.6 8.3 12.4 13.4 10.3 4.7 2.7 1.3 nan nan nan nan 15.6 19.0
1.7 1.5 2.0 3.0 4.2 6.3 7.3 8.3 10.4 10.9 10.4 13.2 13.2 11.5 10.4 11.4 6.0 5.6 5.1 4.2 5.9 7.6 7.0 7.4 5.5 5.3 6.9 9.2 12.3 6.8 3.9 2.8 2.2 3.0 2.6 nan nan nan

GFSNE_prec_sndepth_054.txt.gz
Snowfall_Accumulation
0.0 0.0 0.0 0.0 0.0 0.0 0.0 0.0 0.0 0.0 0.0 0.0 0.0 0.0 0.0 0.0 0.0 0.0 0.0 nan nan nan nan nan nan nan nan nan nan nan nan nan nan nan nan nan nan nan
0.0 0.0 0.0 0.0 0.0 0.0 0.0 0.0 0.0 0.0 0.0 0.0 0.0 0.0 0.0 0.0 0.0 0.0 0.0 nan nan nan nan nan nan nan nan nan nan nan nan nan nan nan nan nan nan nan
0.0 0.0 0.0 0.0 0.0 0.0 0.0 0.0 0.0 0.0 0.3 0.1 0.0 0.1 0.2 0.0 0.0 0.0 0.0 0.0 0.0 nan nan nan nan nan nan nan nan nan nan nan nan nan nan nan nan nan
0.0 0.0 0.0 0.0 0.1 0.1 0.0 0.0 0.1 0.2 0.5 0.3 0.4 1.1 0.7 0.4 0.2 0.1 0.0 0.0 0.0 nan nan nan nan nan nan nan nan nan nan nan nan nan nan nan nan nan
0.0 0.0 0.0 0.0 0.0 0.1 0.2 0.6 0.9 0.4 0.9 0.9 0.8 0.5 0.2 0.0 0.1 0.0 0.0 0.0 0.0 nan nan nan nan nan nan nan nan nan nan nan nan nan nan nan nan nan
0.0 0.0 0.0 0.0 0.1 0.5 0.6 0.7 0.6 0.5 0.4 0.3 0.3 0.5 0.4 0.0 0.0 0.0 0.0 0.0 0.0 0.0 nan nan nan nan nan nan nan nan nan nan nan nan nan nan nan nan
0.1 0.2 0.4 nan nan nan 0.3 0.3 0.2 0.3 0.4 1.6 0.8 0.4 0.4 0.1 0.0 0.0 0.0 0.0 0.1 0.0 0.0 0.0 0.0 0.0 0.0 nan nan nan nan nan nan nan nan nan nan nan
0.8 0.5 0.3 0.2 0.2 nan nan nan nan 0.1 0.4 1.2 1.4 0.2 0.0 0.0 0.0 0.0 0.6 0.6 1.9 0.0 0.0 0.0 0.0 0.0 0.0 0.0 nan nan nan nan nan nan nan nan nan nan
0.9 0.8 0.4 0.1 nan 0.1 nan nan nan nan nan 0.0 0.0 0.0 0.0 0.0 0.5 0.7 0.2 0.6 0.5 0.0 0.0 0.2 0.0 0.0 0.0 0.0 nan nan nan nan nan nan nan nan nan nan
0.7 0.2 0.0 0.0 0.0 0.0 0.0 0.2 0.1 0.0 0.0 0.0 0.0 0.0 0.0 0.0 0.1 0.8 0.9 0.3 0.0 0.0 0.0 2.7 0.0 0.0 0.0 0.0 nan nan nan nan nan nan nan nan nan nan
0.1 0.0 0.0 0.0 nan nan 0.0 0.4 0.0 0.0 nan nan nan nan nan nan nan 0.3 1.3 2.6 0.8 0.2 0.1 0.5 0.3 0.5 0.3 0.1 0.0 nan nan nan nan nan nan nan nan nan
0.0 0.0 nan 0.0 nan nan 0.0 0.0 0.1 0.0 0.0 0.1 0.0 0.0 nan nan nan 0.0 1.6 9.6 4.9 3.6 0.4 5.2 1.2 1.8 5.9 0.5 0.5 0.2 0.0 nan nan nan nan nan nan 0.0
0.1 0.0 0.0 nan nan nan nan 0.0 0.0 0.0 0.0 0.0 0.0 0.0 0.0 0.0 0.0 0.1 0.1 6.8 11.9 7.6 0.5 4.1 8.0 2.5 3.9 3.5 1.0 0.8 0.5 0.2 0.1 0.1 nan nan nan 0.1
0.0 0.0 0.0 nan nan nan nan nan nan nan 0.0 0.0 0.2 0.5 1.1 1.3 1.0 0.8 0.2 0.7 1.1 5.1 1.2 4.3 22.2 8.8 11.8 7.1 3.7 1.4 1.3 0.9 1.2 1.0 1.1 nan nan nan
0.0 0.0 nan nan nan nan nan nan nan 0.1 0.1 0.9 1.1 2.0 2.1 2.5 2.5 3.0 1.9 2.2 4.0 2.1 2.3 5.3 11.3 9.5 10.9 11.0 7.2 3.4 4.3 2.0 2.2 3.6 1.5 1.1 0.9 0.8
nan 0.9 nan 0.0 nan nan 0.0 0.0 0.1 0.0 0.4 1.3 1.6 1.1 1.6 4.8 4.7 3.9 8.2 6.8 8.9 5.9 2.8 4.8 6.9 8.6 12.8 5.4 6.2 5.0 2.8 9.4 2.7 2.1 2.0 1.1 0.5 0.4
nan 0.0 0.0 0.0 0.2 0.0 0.0 0.0 0.0 0.0 1.1 1.3 2.8 2.9 2.6 4.2 5.2 5.4 8.5 9.7 12.7 9.7 8.0 4.4 1.4 2.3 3.7 5.7 9.4 2.9 2.5 3.1 3.1 3.5 3.0 2.8 1.2 0.9
0.0 0.0 0.4 0.5 0.5 0.1 0.1 0.1 0.2 0.9 1.3 3.0 3.4 3.9 6.5 7.7 8.9 9.6 10.6 11.3 12.5 8.5 8.6 7.5 7.5 7.8 5.3 3.4 4.8 4.8 3.3 3.6 3.1 2.3 1.9 6.5 4.2 0.8
0.0 1.1 1.2 1.1 1.1 1.2 1.6 2.3 3.9 2.0 3.3 7.0 7.6 8.3 9.5 9.5 10.3 10.3 10.8 9.0 8.6 8.1 9.2 9.4 12.4 13.7 14.0 10.1 2.1 nan 10.1 5.4 3.9 2.7 1.5 2.9 5.5 2.1
1.4 1.8 2.0 1.6 1.5 2.2 2.8 4.7 5.4 4.8 6.4 8.0 9.6 11.0 12.0 13.7 13.1 12.2 10.0 11.7 8.9 9.0 10.4 11.5 14.4 18.6 22.9 19.6 13.4 5.4 nan 5.4 5.3 5.3 5.9 1.2 0.6 nan
1.4 1.7 1.2 1.8 2.3 3.2 4.0 5.8 5.9 9.8 13.2 14.6 11.7 12.8 12.4 14.6 11.9 9.7 7.9 5.2 nan 8.1 11.4 10.2 10.1 nan 13.0 9.5 9.5 2.9 2.4 nan 1.0 8.8 7.6 6.0 3.8 1.2
1.0 1.5 1.5 2.1 2.9 4.7 6.9 7.8 9.2 9.3 10.7 10.5 11.3 12.6 11.8 11.4 11.8 8.6 5.3 8.4 5.2 7.0 10.3 9.7 6.5 8.2 12.4 13.5 10.4 4.7 2.7 1.2 nan nan nan nan 15.5 19.0
1.7 1.5 2.0 3.0 4.2 6.3 7.3 8.3 10.4 10.9 10.4 13.1 13.2 11.4 10.4 11.5 6.0 5.6 5.2 4.2 6.0 7.7 6.9 7.4 5.5 5.3 6.9 9.2 12.3 6.8 3.9 2.8 2.1 3.0 2.6 nan nan nan

GFSNE_prec_sndepth_057.txt.gz
Snowfall_Accumulation
0.0 0.0 0.0 0.0 0.0 0.0 0.0 0.0 0.0 0.0 0.0 0.0 0.0 0.0 0.0 0.0 0.0 0.0 0.0 nan nan nan nan nan nan nan nan nan nan nan nan nan nan nan nan nan nan nan
0.0 0.0 0.0 0.0 0.0 0.0 0.0 0.0 0.0 0.0 0.0 0.0 0.0 0.0 0.0 0.0 0.0 0.0 0.0 nan nan nan nan nan nan nan nan nan nan nan nan nan nan nan nan nan nan nan
0.0 0.0 0.0 0.0 0.0 0.0 0.0 0.0 0.0 0.0 0.3 0.1 0.0 0.1 0.2 0.0 0.0 0.0 0.0 0.0 0.0 nan nan nan nan nan nan nan nan nan nan nan nan nan nan nan nan nan
0.0 0.0 0.0 0.0 0.1 0.1 0.0 0.0 0.1 0.2 0.5 0.3 0.6 1.7 0.8 0.3 0.2 0.1 0.0 0.0 0.0 nan nan nan nan nan nan nan nan nan nan nan nan nan nan nan nan nan
0.0 0.0 0.0 0.0 0.0 0.1 0.2 0.5 0.8 0.3 0.8 0.8 0.8 0.5 0.2 0.0 0.1 0.0 0.0 0.0 0.0 nan nan nan nan nan nan nan nan nan nan nan nan nan nan nan nan nan
0.0 0.0 0.0 0.0 0.1 0.4 0.5 0.6 0.5 0.5 0.3 0.3 0.2 0.5 0.4 0.0 0.0 0.0 0.0 0.0 0.0 0.0 nan nan nan nan nan nan nan nan nan nan nan nan nan nan nan nan
0.1 0.2 0.3 nan nan nan 0.3 0.2 0.2 0.2 0.4 1.5 0.8 0.4 0.3 0.1 0.0 0.0 0.0 0.0 0.1 0.0 0.0 0.0 0.0 0.0 0.0 nan nan nan nan nan nan nan nan nan nan nan
0.7 0.4 0.3 0.2 0.2 nan nan nan nan 0.1 0.4 1.1 1.4 0.2 0.0 0.0 0.0 0.0 0.6 0.6 1.9 0.0 0.0 0.0 0.0 0.0 0.0 0.0 nan nan nan nan nan nan nan nan nan nan
0.9 0.8 0.3 0.1 nan 0.1 nan nan nan nan nan 0.0 0.0 0.0 0.0 0.0 0.5 0.7 0.2 0.6 0.5 0.0 0.0 0.2 0.0 0.0 0.0 0.0 nan nan nan nan nan nan nan nan nan nan
0.9 0.2 0.0 0.0 0.0 0.0 0.0 0.2 0.1 0.0 0.0 0.0 0.0 0.0 0.0 0.0 0.1 0.8 0.9 0.3 0.0 0.0 0.0 2.8 0.0 0.0 0.0 0.0 nan nan nan nan nan nan nan nan nan nan
0.1 0.0 0.0 0.0 nan nan 0.0 0.4 0.0 0.0 nan nan nan nan nan nan nan 0.3 1.3 2.7 0.8 0.2 0.1 0.5 0.3 0.5 0.3 0.1 0.0 nan nan nan nan nan nan nan nan nan
0.0 0.0 nan 0.0 nan nan 0.0 0.0 0.1 0.0 0.0 0.1 0.0 0.0 nan nan nan 0.0 1.6 9.6 4.9 3.6 0.4 5.2 1.2 1.8 5.9 0.5 0.5 0.2 0.0 nan nan nan nan nan nan 0.0
0.1 0.0 0.0 nan nan nan nan 0.0 0.0 0.0 0.0 0.0 0.0 0.0 0.0 0.0 0.0 0.1 0.1 6.8 11.9 7.6 0.5 4.1 8.0 2.5 3.9 3.5 1.0 0.8 0.5 0.2 0.1 0.1 nan nan nan 0.1
0.0 0.0 0.0 nan nan nan nan nan nan nan 0.0 0.0 0.2 0.5 1.1 1.3 1.0 0.8 0.2 0.7 1.1 5.1 1.2 4.3 22.2 8.7 11.8 7.1 3.7 1.4 1.3 0.9 1.2 1.0 1.1 nan nan nan
0.0 0.0 nan nan nan nan nan nan nan 0.1 0.1 0.9 1.1 2.0 2.1 2.5 2.5 3.0 1.9 2.2 3.9 2.0 2.3 5.3 11.3 9.4 11.0 11.0 7.2 3.4 4.3 1.9 2.1 3.6 1.5 1.1 0.9 0.8
nan 0.9 nan 0.0 nan nan 0.0 0.0 0.1 0.0 0.4 1.3 1.6 1.1 1.6 4.8 4.7 3.9 8.2 6.8 8.9 5.9 2.8 4.8 6.9 8.5 12.8 5.4 6.3 5.0 2.8 9.4 2.7 2.0 2.0 1.1 0.5 0.4
nan 0.0 0.0 0.0 0.2 0.0 0.0 0.0 0.0 0.0 1.1 1.3 2.8 2.9 2.6 4.2 5.2 5.4 8.5 9.7 12.8 9.7 8.0 4.4 1.4 2.3 3.7 5.6 9.5 2.9 2.4 3.1 3.1 3.5 3.0 2.8 1.2 0.9
0.0 0.0 0.4 0.5 0.5 0.1 0.1 0.1 0.2 0.9 1.3 3.0 3.4 3.9 6.5 7.7 8.9 9.6 10.6 11.3 12.5 8.5 8.5 7.4 7.5 7.8 5.3 3.4 4.8 4.8 3.3 3.6 3.0 2.3 1.9 6.5 4.2 0.8
0.0 1.1 1.2 1.1 1.1 1.2 1.6 2.3 3.9 2.0 3.3 7.0 7.6 8.3 9.5 9.5 10.3 10.2 10.8 9.0 8.6 8.1 9.2 9.4 12.4 13.8 14.1 10.1 2.1 nan 10.0 5.4 3.9 2.7 1.5 2.9 5.5 2.1
1.4 1.8 2.0 1.6 1.5 2.2 2.8 4.7 5.4 4.8 6.4 8.0 9.6 11.0 12.0 13.7 13.1 12.1 10.0 11.7 8.9 9.0 10.4 11.5 14.3 18.6 23.0 19.6 13.5 5.4 nan 5.4 5.3 5.3 5.9 1.2 0.6 nan
1.4 1.7 1.2 1.8 2.3 3.2 4.0 5.8 5.9 9.8 13.1 14.6 11.7 12.8 12.4 14.6 11.9 9.7 7.9 5.2 nan 8.2 11.4 10.2 10.0 nan 12.9 9.5 9.7 2.9 2.4 nan 1.0 8.8 7.6 6.0 3.8 1.2
1.0 1.5 1.5 2.1 2.9 4.7 6.9 7.8 9.2 9.3 10.7 10.5 11.3 12.6 11.8 11.3 11.8 8.7 5.3 8.4 5.2 7.0 10.3 9.7 6.5 8.2 12.4 13.6 10.4 4.6 2.6 1.2 nan nan nan nan 15.5 18.9
1.7 1.5 2.0 3.0 4.3 6.3 7.3 8.3 10.4 10.9 10.4 13.1 13.2 11.4 10.4 11.5 6.1 5.7 5.3 4.2 6.0 7.7 6.9 7.5 5.4 5.2 6.9 9.2 12.2 6.8 3.8 2.7 2.1 3.0 2.6 nan nan nan

GFSNE_prec_sndepth_063.txt.gz
Snowfall_Accumulation
0.0 0.0 0.0 0.0 0.0 0.0 0.0 0.0 0.0 0.0 0.0 0.0 0.0 0.0 0.0 0.0 0.0 0.0 0.0 nan nan nan nan nan nan nan nan nan nan nan nan nan nan nan nan nan nan nan
0.0 0.0 0.0 0.0 0.0 0.0 0.0 0.0 0.0 0.0 0.0 0.0 0.0 0.0 0.0 0.0 0.0 0.0 0.0 nan nan nan nan nan nan nan nan nan nan nan nan nan nan nan nan nan nan nan
0.0 0.0 0.0 0.0 0.0 0.0 0.0 0.0 0.0 0.0 0.2 0.1 0.0 0.1 0.1 0.0 0.0 0.0 0.0 0.0 0.0 nan nan nan nan nan nan nan nan nan nan nan nan nan nan nan nan nan
0.0 0.0 0.0 0.0 0.1 0.1 0.0 0.0 0.1 0.2 0.4 0.2 0.5 1.5 0.8 0.2 0.1 0.1 0.0 0.0 0.0 nan nan nan nan nan nan nan nan nan nan nan nan nan nan nan nan nan
0.0 0.0 0.0 0.0 0.0 0.0 0.1 0.4 0.7 0.2 0.7 0.7 0.7 0.4 0.3 0.0 0.0 0.0 0.0 0.0 0.0 nan nan nan nan nan nan nan nan nan nan nan nan nan nan nan nan nan
0.0 0.0 0.0 0.0 0.1 0.3 0.4 0.4 0.4 0.4 0.3 0.2 0.2 0.4 0.3 0.0 0.0 0.0 0.1 0.0 0.0 0.0 nan nan nan nan nan nan nan nan nan nan nan nan nan nan nan nan
0.1 0.1 0.2 nan nan nan 0.2 0.2 0.1 0.2 0.3 1.3 0.7 0.4 0.3 0.1 0.1 0.0 0.0 0.0 0.1 0.0 0.0 0.0 0.0 0.0 0.0 nan nan nan nan nan nan nan nan nan nan nan
0.5 0.3 0.2 0.1 0.1 nan nan nan nan 0.1 0.3 1.1 1.4 0.2 0.0 0.0 0.0 0.0 0.6 0.6 1.9 0.0 0.0 0.0 0.0 0.0 0.0 0.0 nan nan nan nan nan nan nan nan nan nan
0.9 0.8 0.3 0.1 nan 0.1 nan nan nan nan nan 0.0 0.0 0.0 0.0 0.0 0.5 0.7 0.2 0.6 0.5 0.0 0.0 0.2 0.0 0.0 0.0 0.0 nan nan nan nan nan nan nan nan nan nan
0.9 0.2 0.0 0.0 0.0 0.0 0.0 0.2 0.1 0.0 0.0 0.0 0.0 0.0 0.0 0.0 0.1 0.8 0.9 0.3 0.0 0.0 0.0 2.8 0.0 0.0 0.0 0.0 nan nan nan nan nan nan nan nan nan nan
0.1 0.0 0.0 0.0 nan nan 0.0 0.4 0.0 0.0 nan nan nan nan nan nan nan 0.3 1.3 2.7 0.8 0.2 0.1 0.5 0.3 0.5 0.3 0.1 0.0 nan nan nan nan nan nan nan nan nan
0.0 0.0 nan 0.0 nan nan 0.0 0.0 0.1 0.0 0.0 0.1 0.0 0.0 nan nan nan 0.0 1.6 9.6 4.9 3.6 0.4 5.2 1.2 1.8 5.9 0.5 0.5 0.2 0.0 nan nan nan nan nan nan 0.0
0.1 0.0 0.0 nan nan nan nan 0.0 0.0 0.0 0.0 0.0 0.0 0.0 0.0 0.0 0.0 0.1 0.1 6.8 11.8 7.6 0.5 4.1 8.0 2.5 3.9 3.5 1.0 0.8 0.5 0.2 0.1 0.1 nan nan nan 0.1
0.0 0.0 0.0 nan nan nan nan nan nan nan 0.0 0.0 0.2 0.5 1.1 1.3 1.0 0.8 0.2 0.7 1.1 5.1 1.1 4.3 22.1 8.7 11.8 7.1 3.7 1.4 1.3 0.9 1.2 1.0 1.1 nan nan nan
0.0 0.0 nan nan nan nan nan nan nan 0.1 0.1 0.9 1.1 2.0 2.1 2.5 2.5 3.0 1.9 2.2 3.9 2.0 2.3 5.3 11.3 9.4 11.1 11.0 7.2 3.4 4.3 2.0 2.1 3.6 1.5 1.1 0.9 0.8
nan 0.8 nan 0.0 nan nan 0.0 0.0 0.1 0.0 0.4 1.3 1.6 1.1 1.6 4.8 4.6 3.9 8.2 6.7 8.9 5.9 2.8 4.8 6.9 8.6 12.9 5.5 6.3 5.0 2.8 9.3 2.7 2.0 2.0 1.1 0.5 0.4
nan 0.0 0.0 0.0 0.2 0.0 0.0 0.0 0.0 0.0 1.1 1.3 2.8 2.9 2.6 4.1 5.1 5.4 8.5 9.7 12.8 9.7 8.0 4.4 1.4 2.3 3.7 5.7 9.8 2.8 2.4 3.1 3.1 3.5 3.0 2.8 1.2 0.9
0.0 0.0 0.4 0.5 0.5 0.1 0.1 0.1 0.2 0.9 1.3 3.0 3.4 3.9 6.5 7.7 8.8 9.6 10.6 11.3 12.5 8.5 8.5 7.4 7.5 7.8 5.3 3.4 4.8 4.8 3.2 3.5 3.0 2.3 1.9 6.6 4.1 0.8
0.0 1.1 1.2 1.1 1.1 1.2 1.6 2.3 4.0 2.0 3.3 7.0 7.6 8.3 9.4 9.5 10.2 10.2 10.8 9.0 8.6 8.1 9.2 9.4 12.4 13.7 14.2 10.1 2.1 nan 10.0 5.3 3.9 2.7 1.4 2.9 5.5 2.1
1.4 1.8 2.0 1.6 1.5 2.2 2.8 4.7 5.4 4.8 6.4 8.0 9.5 10.9 11.9 13.6 13.0 12.1 10.0 11.7 8.9 9.0 10.3 11.4 14.2 18.4 23.2 19.5 13.5 5.4 nan 5.4 5.3 5.2 5.9 1.2 0.6 nan
1.4 1.7 1.2 1.8 2.3 3.3 4.0 5.8 5.9 9.8 13.1 14.6 11.8 12.8 12.3 14.5 11.9 9.7 7.9 5.1 nan 8.2 11.4 10.1 9.9 nan 13.2 10.1 10.1 2.9 2.3 nan 1.0 8.7 7.6 6.0 3.8 1.2
1.0 1.5 1.5 2.1 2.9 4.7 6.9 7.8 9.2 9.3 10.7 10.5 11.3 12.6 11.7 11.3 11.8 8.6 5.3 8.4 5.2 7.0 10.3 9.6 6.5 8.2 12.6 13.9 10.6 4.6 2.6 1.2 nan nan nan nan 15.3 18.9
1.7 1.5 2.0 3.0 4.3 6.3 7.3 8.3 10.4 10.9 10.4 13.1 13.1 11.4 10.3 11.5 6.0 5.7 5.3 4.3 6.1 7.8 6.9 7.5 5.4 5.2 7.0 9.3 12.1 6.7 3.8 2.7 2.1 2.9 2.5 nan nan nan

GFSNE_prec_sndepth_066.txt.gz
Snowfall_Accumulation
0.0 0.0 0.0 0.0 0.0 0.0 0.0 0.0 0.0 0.0 0.0 0.0 0.0 0.0 0.0 0.0 0.0 0.0 0.0 nan nan nan nan nan nan nan nan nan nan nan nan nan nan nan nan nan nan nan
0.0 0.0 0.0 0.0 0.0 0.0 0.0 0.0 0.0 0.0 0.0 0.0 0.0 0.0 0.0 0.0 0.0 0.0 0.0 nan nan nan nan nan nan nan nan nan nan nan nan nan nan nan nan nan nan nan
0.0 0.0 0.0 0.0 0.0 0.0 0.0 0.0 0.0 0.0 0.2 0.1 0.0 0.1 0.1 0.0 0.0 0.0 0.0 0.0 0.0 nan nan nan nan nan nan nan nan nan nan nan nan nan nan nan nan nan
0.0 0.0 0.0 0.0 0.1 0.0 0.0 0.0 0.1 0.2 0.4 0.2 0.4 1.4 0.7 0.2 0.1 0.1 0.0 0.0 0.0 nan nan nan nan nan nan nan nan nan nan nan nan nan nan nan nan nan
0.0 0.0 0.0 0.0 0.0 0.0 0.1 0.4 0.7 0.2 0.7 0.7 0.7 0.4 0.3 0.0 0.0 0.0 0.0 0.0 0.0 nan nan nan nan nan nan nan nan nan nan nan nan nan nan nan nan nan
0.0 0.0 0.0 0.0 0.1 0.3 0.3 0.5 0.4 0.4 0.3 0.2 0.2 0.4 0.3 0.0 0.0 0.0 0.1 0.0 0.0 0.0 nan nan nan nan nan nan nan nan nan nan nan nan nan nan nan nan
0.1 0.1 0.1 nan nan nan 0.2 0.2 0.1 0.2 0.3 1.3 0.7 0.4 0.3 0.1 0.1 0.0 0.0 0.0 0.1 0.0 0.0 0.0 0.0 0.0 0.0 nan nan nan nan nan nan nan nan nan nan nan
0.5 0.3 0.2 0.1 0.1 nan nan nan nan 0.1 0.3 1.1 1.4 0.2 0.0 0.0 0.0 0.0 0.6 0.6 1.9 0.0 0.0 0.0 0.0 0.0 0.0 0.0 nan nan nan nan nan nan nan nan nan nan
0.9 0.8 0.3 0.1 nan 0.1 nan nan nan nan nan 0.0 0.0 0.0 0.0 0.0 0.5 0.7 0.2 0.6 0.5 0.0 0.0 0.2 0.0 0.0 0.0 0.0 nan nan nan nan nan nan nan nan nan nan
0.9 0.2 0.0 0.0 0.0 0.0 0.0 0.2 0.1 0.0 0.0 0.0 0.0 0.0 0.0 0.0 0.1 0.8 0.9 0.3 0.0 0.0 0.0 2.8 0.0 0.0 0.0 0.0 nan nan nan nan nan nan nan nan nan nan
0.1 0.0 0.0 0.0 nan nan 0.0 0.4 0.0 0.0 nan nan nan nan nan nan nan 0.3 1.3 2.7 0.8 0.2 0.1 0.5 0.3 0.5 0.3 0.1 0.0 nan nan nan nan nan nan nan nan nan
0.0 0.0 nan 0.0 nan nan 0.0 0.0 0.1 0.0 0.0 0.1 0.0 0.0 nan nan nan 0.0 1.6 9.6 4.9 3.6 0.4 5.2 1.2 1.8 5.9 0.5 0.5 0.2 0.0 nan nan nan nan nan nan 0.0
0.1 0.0 0.0 nan nan nan nan 0.0 0.0 0.0 0.0 0.0 0.0 0.0 0.0 0.0 0.0 0.1 0.1 6.8 11.8 7.6 0.5 4.1 8.0 2.5 3.9 3.5 1.0 0.8 0.5 0.2 0.1 0.1 nan nan nan 0.1
0.0 0.0 0.0 nan nan nan nan nan nan nan 0.0 0.0 0.2 0.5 1.1 1.3 1.0 0.8 0.2 0.7 1.1 5.1 1.1 4.3 22.0 8.7 11.7 7.1 3.7 1.4 1.3 0.9 1.2 1.0 1.1 nan nan nan
0.0 0.0 nan nan nan nan nan nan nan 0.1 0.1 0.9 1.1 2.0 2.1 2.6 2.5 3.0 1.9 2.2 3.9 2.0 2.3 5.3 11.3 9.4 11.1 11.0 7.2 3.4 4.2 2.0 2.1 3.6 1.5 1.1 0.9 0.8
nan 0.8 nan 0.0 nan nan 0.0 0.0 0.1 0.0 0.4 1.3 1.6 1.1 1.6 4.8 4.6 3.9 8.2 6.7 8.9 5.9 2.8 4.8 6.9 8.6 13.0 5.6 6.4 5.0 2.8 9.3 2.7 2.0 2.0 1.1 0.5 0.4
nan 0.0 0.0 0.0 0.2 0.0 0.0 0.0 0.0 0.0 1.1 1.3 2.8 2.9 2.6 4.1 5.1 5.4 8.5 9.6 12.8 9.7 8.0 4.4 1.4 2.3 3.7 5.7 9.8 2.8 2.4 3.1 3.1 3.5 3.0 2.8 1.2 0.9
0.0 0.0 0.4 0.5 0.5 0.1 0.1 0.1 0.2 0.9 1.3 3.0 3.4 3.9 6.5 7.7 8.8 9.6 10.6 11.3 12.5 8.5 8.5 7.4 7.5 7.8 5.3 3.4 4.8 4.7 3.2 3.5 3.0 2.3 1.9 6.6 4.1 0.7
0.0 1.1 1.2 1.1 1.1 1.2 1.6 2.3 4.0 2.0 3.3 7.0 7.6 8.3 9.4 9.5 10.1 10.2 10.7 9.0 8.6 8.1 9.1 9.4 12.4 13.7 14.3 10.1 2.1 nan 10.0 5.3 3.9 2.7 1.4 2.9 5.5 2.1
1.4 1.8 2.0 1.6 1.5 2.2 2.8 4.7 5.4 4.8 6.4 7.9 9.5 10.9 11.9 13.6 13.0 12.1 9.9 11.7 8.9 9.0 10.3 11.4 14.2 18.4 23.4 19.5 13.5 5.3 nan 5.3 5.2 5.2 5.9 1.2 0.6 nan
1.4 1.7 1.2 1.8 2.3 3.3 4.0 5.8 5.9 9.8 13.1 14.6 11.7 12.8 12.3 14.5 11.9 9.7 7.9 5.1 nan 8.2 11.4 10.1 9.9 nan 13.4 10.6 10.2 2.9 2.3 nan 0.9 8.7 7.6 6.0 3.8 1.2
1.0 1.5 1.5 2.1 2.9 4.7 6.9 7.8 9.2 9.3 10.7 10.5 11.3 12.5 11.7 11.3 11.8 8.6 5.3 8.5 5.2 7.0 10.3 9.6 6.4 8.2 12.7 14.1 10.6 4.6 2.6 1.2 nan nan nan nan 15.3 18.8
1.7 1.5 2.0 3.0 4.3 6.3 7.3 8.3 10.4 10.9 10.4 13.1 13.1 11.4 10.3 11.5 6.1 5.8 5.4 4.3 6.2 7.8 6.9 7.6 5.4 5.2 7.0 9.3 12.1 6.7 3.8 2.7 2.1 2.9 2.5 nan nan nan

GFSNE_prec_sndepth_069.txt.gz
Snowfall_Accumulation
0.0 0.0 0.0 0.0 0.0 0.0 0.0 0.0 0.0 0.0 0.0 0.0 0.0 0.0 0.0 0.0 0.0 0.0 0.0 nan nan nan nan nan nan nan nan nan nan nan nan nan nan nan nan nan nan nan
0.0 0.0 0.0 0.0 0.0 0.0 0.0 0.0 0.0 0.0 0.0 0.0 0.0 0.0 0.0 0.0 0.0 0.0 0.0 nan nan nan nan nan nan nan nan nan nan nan nan nan nan nan nan nan nan nan
0.0 0.0 0.0 0.0 0.0 0.0 0.0 0.0 0.0 0.0 0.2 0.1 0.0 0.1 0.1 0.0 0.0 0.0 0.0 0.0 0.0 nan nan nan nan nan nan nan nan nan nan nan nan nan nan nan nan nan
0.0 0.0 0.0 0.0 0.1 0.0 0.0 0.0 0.0 0.1 0.4 0.2 0.3 1.3 0.6 0.2 0.1 0.1 0.0 0.0 0.0 nan nan nan nan nan nan nan nan nan nan nan nan nan nan nan nan nan
0.0 0.0 0.0 0.0 0.0 0.0 0.1 0.4 0.6 0.2 0.6 0.6 0.6 0.4 0.2 0.0 0.0 0.0 0.0 0.0 0.0 nan nan nan nan nan nan nan nan nan nan nan nan nan nan nan nan nan
0.0 0.0 0.0 0.0 0.1 0.2 0.3 0.4 0.3 0.4 0.3 0.2 0.2 0.4 0.3 0.0 0.0 0.0 0.1 0.0 0.0 0.0 nan nan nan nan nan nan nan nan nan nan nan nan nan nan nan nan
0.0 0.1 0.1 nan nan nan 0.2 0.2 0.1 0.2 0.3 1.2 0.6 0.4 0.3 0.1 0.1 0.0 0.0 0.0 0.0 0.0 0.0 0.0 0.0 0.0 0.0 nan nan nan nan nan nan nan nan nan nan nan
0.5 0.3 0.1 0.1 0.1 nan nan nan nan 0.1 0.3 1.0 1.4 0.2 0.0 0.0 0.0 0.0 0.5 0.5 1.8 0.0 0.0 0.0 0.0 0.0 0.0 0.0 nan nan nan nan nan nan nan nan nan nan
0.9 0.8 0.3 0.0 nan 0.1 nan nan nan nan nan 0.0 0.0 0.0 0.0 0.0 0.5 0.7 0.2 0.5 0.4 0.0 0.0 0.2 0.0 0.0 0.0 0.0 nan nan nan nan nan nan nan nan nan nan
0.9 0.2 0.0 0.0 0.0 0.0 0.0 0.2 0.1 0.0 0.0 0.0 0.0 0.0 0.0 0.0 0.0 0.7 0.9 0.2 0.0 0.0 0.0 2.7 0.0 0.0 0.0 0.0 nan nan nan nan nan nan nan nan nan nan
0.1 0.0 0.0 0.0 nan nan 0.0 0.4 0.0 0.0 nan nan nan nan nan nan nan 0.3 1.2 2.5 0.7 0.2 0.1 0.5 0.3 0.5 0.3 0.1 0.0 nan nan nan nan nan nan nan nan nan
0.0 0.0 nan 0.0 nan nan 0.0 0.0 0.1 0.0 0.0 0.1 0.0 0.0 nan nan nan 0.0 1.5 9.4 4.7 3.5 0.4 5.2 1.1 1.7 5.9 0.4 0.4 0.1 0.0 nan nan nan nan nan nan 0.0
0.0 0.0 0.0 nan nan nan nan 0.0 0.0 0.0 0.0 0.0 0.0 0.0 0.0 0.0 0.0 0.1 0.1 6.7 11.7 7.5 0.4 4.0 8.0 2.4 3.7 3.4 1.0 0.8 0.5 0.2 0.1 0.1 nan nan nan 0.1
0.0 0.0 0.0 nan nan nan nan nan nan nan 0.0 0.0 0.2 0.5 1.0 1.3 1.0 0.8 0.2 0.7 1.0 5.0 1.1 4.2 21.9 8.7 11.7 7.1 3.7 1.3 1.2 0.8 1.2 1.0 1.0 nan nan nan
0.0 0.0 nan nan nan nan nan nan nan 0.1 0.1 0.9 1.1 2.0 2.1 2.5 2.5 2.9 1.9 2.1 3.9 1.9 2.1 5.2 11.2 9.4 11.1 11.0 7.2 3.3 4.2 1.9 2.0 3.4 1.4 1.0 0.9 0.7
nan 0.8 nan 0.0 nan nan 0.0 0.0 0.1 0.0 0.4 1.3 1.6 1.1 1.6 4.8 4.6 3.8 8.1 6.7 8.8 5.8 2.8 4.8 6.8 8.5 12.9 5.5 6.3 5.0 2.8 9.3 2.6 2.0 2.0 1.0 0.4 0.4
nan 0.0 0.0 0.0 0.2 0.0 0.0 0.0 0.0 0.0 1.1 1.3 2.8 2.9 2.6 4.1 5.1 5.3 8.4 9.6 12.7 9.6 7.9 4.4 1.4 2.3 3.6 5.7 9.8 2.8 2.4 3.0 3.0 3.4 3.0 2.8 1.1 0.8
0.0 0.0 0.4 0.5 0.5 0.1 0.1 0.1 0.2 0.9 1.3 3.0 3.4 3.9 6.5 7.6 8.8 9.5 10.5 11.3 12.5 8.4 8.5 7.4 7.4 7.8 5.2 3.4 4.7 4.7 3.2 3.5 3.0 2.2 1.9 6.6 4.1 0.7
0.0 1.1 1.2 1.1 1.1 1.2 1.6 2.3 3.9 2.0 3.3 7.0 7.6 8.2 9.4 9.4 10.1 10.1 10.7 9.0 8.6 8.1 9.1 9.3 12.3 13.7 14.3 10.0 2.0 nan 9.9 5.3 3.9 2.6 1.4 2.9 5.4 2.1
1.3 1.8 2.0 1.5 1.5 2.2 2.8 4.7 5.4 4.8 6.4 7.9 9.5 10.9 11.9 13.6 13.0 12.0 9.9 11.6 8.9 9.0 10.3 11.3 14.2 18.3 23.5 19.5 13.5 5.3 nan 5.3 5.2 5.2 5.8 1.2 0.6 nan
1.3 1.7 1.2 1.8 2.3 3.2 3.9 5.8 5.9 9.8 13.1 14.5 11.7 12.7 12.3 14.5 11.8 9.6 7.9 5.1 nan 8.1 11.3 10.0 9.8 nan 13.6 10.9 10.4 2.8 2.3 nan 0.9 8.6 7.5 6.0 3.8 1.2
1.0 1.5 1.5 2.1 2.9 4.7 6.9 7.7 9.1 9.3 10.6 10.4 11.2 12.5 11.7 11.3 11.8 8.6 5.3 8.5 5.2 7.0 10.2 9.5 6.4 8.1 12.6 14.1 10.6 4.6 2.5 1.2 nan nan nan nan 15.2 18.7
1.7 1.5 1.9 3.0 4.2 6.3 7.3 8.2 10.4 10.8 10.3 13.0 13.1 11.3 10.3 11.5 6.1 5.8 5.4 4.3 6.2 7.8 6.9 7.5 5.4 5.2 7.0 9.3 12.0 6.7 3.8 2.7 2.0 2.9 2.5 nan nan nan